Simultaneous Nadir Overpasses (SNOs) Predictions

Prediction of SNOs between METOP-B and NOAA-19 Satellite Orbit:

Table of predicted SNOs for the next 14.0 days since TLE Epoch: 6/10/2023
Index Date (METOP-B) Time (METOP-B) Lat,Lon (METOP-B) SZA (METOP-B ) Date (NOAA-19) Time (NOAA-19) Lat,Lon (NOAA-19) SZA (NOAA-19 ) Distance(km) Time Diff (sec)
1 06/12/2023 21:07:13 80.91,-102.81 59.36 06/12/2023 21:06:06 80.91,-102.64 59.36 3.06 67
2 06/12/2023 21:57:54 -80.91, 64.56 120.64 06/12/2023 21:57:04 -80.92, 64.68 120.64 2.15 50
3 06/12/2023 22:48:34 80.92,-127.95 59.38 06/12/2023 22:48:05 80.91,-128.11 59.36 2.79 29
4 06/12/2023 23:39:15 -80.92, 39.42 120.62 06/12/2023 23:39:02 -80.92, 39.58 120.61 2.80 13
5 06/13/2023 00:29:55 80.93,-153.09 59.41 06/13/2023 00:30:03 80.92,-153.20 59.39 2.22 8
6 06/13/2023 01:20:36 -80.93, 14.28 120.59 06/13/2023 01:21:01 -80.92, 14.11 120.61 3.29 25
7 06/13/2023 02:11:17 80.92,-178.58 59.38 06/13/2023 02:12:02 80.92,-178.66 59.39 1.40 45



Historial Predications of SNOs between METOP-B and NOAA-19
